SBIRS GEO-5 (USA 315)

Last updated on Tue Oct 28 2025 00:02:51 GMT+0000 (Coordinated Universal Time)

1 48618U 21042A 25300.54479647 -.00000262 00000+0 00000+0 0 9991 2 48618 5.4136 327.5002 0005568 217.8168 140.7872 1.00272320 16434
UTC large
Height (km)
Speed (km/s)
/
Latitude / Longitude
Inclination (degrees)
Orbital Period (minutes)
Azimuth
Elevation
Range (km)
Doppler Factor

Next 0 passes for location: London (51.5072 / 0.1276)

Sorry there are no passes over London.